Вернуться в каталог

STARLINK-37742

АктивенСвязьVLEO
NORAD 69241·PAYLOAD·🇺🇸 United States

Запущен May 29, 2026 с Cape Canaveral Space Force Station

Loading…

Ближайшие Пролёты (ближайшие 24 часа)

TLE

СвежийSource: CelesTrak SupGP

Эпоха: Sep 14, 2026, 23:22 UTC

1 69241C 26117D   26257.97409722 -.00042074  00000+0 -12443-2 0  2572
2 69241  53.1570 179.6051 0001338  79.1460  87.9052 15.34381202    17

Отслеживайте STARLINK-37742 в реальном времени с AllMySat

Download on the App Store